Regional Weather Roundup
Issued by NWS

Home | Current Version | Previous Version | Text Only | Print | Product List | Glossary Off
Versions: 1 2 3 4 5 6 7 8 9 10 11 12 13 14 15 16 17 18 19 20 21 22 23 24 25 26 27 28 29 30 31 32 33 34 35 36 37 38 39 40 41 42 43 44 45 46 47 48 49 50

000
ASUS43 KMPX 301301
RWRMN
WEATHER ROUNDUP FOR MINNESOTA
NATIONAL WEATHER SERVICE TWIN CITIES/CHANHASSEN MN
800 AM CDT SAT AUG 30 2014


NOTE: "FAIR" INDICATES FEW OR NO CLOUDS BELOW 12,000 FEET WITH NO
SIGNIFICANT WEATHER AND/OR OBSTRUCTIONS TO VISIBILITY. N/A MEANS
CURRENT SKY AND/OR WEATHER CONDITIONS ARE NOT AVAILABLE.

MNZ060>063-068>070-301400-
   Twin Cities Metro

CITY           SKY/WX    TMP DP  RH WIND       PRES   REMARKS
TWIN CITIES    PTSUNNY   67  65  93 NW6       29.82R
ST PAUL        CLOUDY    67  64  90 NW8       29.82R
CRYSTAL        MOSUNNY   68  64  87 NW5       29.81S
BLAINE         PTSUNNY   66  66 100 NW5       29.82R
LAKEVILLE      CLOUDY    64  64 100 N6        29.82S
EDEN PRAIRIE   SUNNY     68  65  90 N5        29.82R
SOUTH ST PAUL  CLOUDY    67  64  90 N7        29.81R
LAKE ELMO      CLOUDY    64  64 100 N6        29.83R
$$
MNZ001>005-007-008-013>017-022>024-027-028-301400-
   Northwest Minnesota

CITY           SKY/WX    TMP DP  RH WIND       PRES   REMARKS
BEMIDJI        CLOUDY    57  54  88 N10       29.91S
HALLOCK        SUNNY     46  45  93 CALM      29.96S
ROSEAU         SUNNY     50  45  81 N6        29.95S
WARROAD        SUNNY     52  48  87 N6        29.95S
THIEF RVR FALL MOSUNNY   52  48  87 NE8       29.94S
CROOKSTON      SUNNY     50  48  93 N6        29.95S
FOSSTON        CLOUDY    55  54  94 N8        29.93S
DETROIT LAKES  CLOUDY    59  57  94 N5        29.92R
MOORHEAD       CLOUDY    55  55 100 N7        29.92F
PARK RAPIDS    CLOUDY    58  55  90 NE9       29.90R
MAHNOMEN       CLOUDY    56  55  96 N7        29.91R
$$
MNZ006-009>011-018-025>026-301400-
   North Central Minnesota

CITY           SKY/WX    TMP DP  RH WIND       PRES   REMARKS
BAUDETTE       SUNNY     56  53  90 N3        29.94R
FLAG ISLAND    PTSUNNY   57  54  88 NE9       29.94S
INTL FALLS     CLOUDY    59  53  80 NE7       29.93R
WASKISH        CLOUDY    55  54  94 N5        29.94R
BIG FORK       CLOUDY    57  55  94 N3        29.92R
LONGVILLE      CLOUDY    57  57 100 N7        29.88R
GRAND RAPIDS   CLOUDY    59  55  88 N7        29.88S
CRANE LAKE     CLOUDY    55  54  94 N6        29.92R
ORR            CLOUDY    57  54  88 CALM      29.88R
COOK           CLOUDY    57  55  94 NW3       29.90R
WALKER         CLOUDY    56  55  95 N5        29.90R
$$
MNZ012-019>021-037-301400-
   Northeast Minnesota

CITY           SKY/WX    TMP DP  RH WIND       PRES   REMARKS
DULUTH         CLOUDY    62  58  86 N8        29.85R
ELY            CLOUDY    59  57  94 N3        29.88R
HIBBING        CLOUDY    61  58  90 N10       29.88R
EVELETH        CLOUDY    59  59 100 N6        29.88R
DULUTH HARBOR  PTSUNNY   63  61  94 N8        29.84S
TWO HARBORS    CLOUDY    57  54  88 CALM      29.83R
SILVER BAY     PTSUNNY   57  57 100 CALM      29.83R
GRAND MARAIS     N/A     60  59  96 CALM      29.83R
G MARAIS ARPRT CLOUDY    57  54  88 N6        29.87R
$$
MNZ029>031-032-039>041-046>048-054>057-064-301400-
   West Central Minnesota

CITY           SKY/WX    TMP DP  RH WIND       PRES   REMARKS
FERGUS FALLS   CLOUDY    61  57  88 NW8       29.90S
WHEATON        CLOUDY    55  54  94 NW6       29.93R
MORRIS         CLOUDY    61  61 100 NW9       29.89R
ALEXANDRIA     CLOUDY    65  62  90 N9        29.89S
ELBOW LAKE     CLOUDY    60  59  96 NW9       29.89S
WADENA         CLOUDY    59  57  94 N8        29.89R
GLENWOOD       CLOUDY    64  64 100 NW6       29.88S
APPLETON       LGT RAIN  63  59  88 NW6       29.89S
BENSON         CLOUDY    61  61 100 N10       29.89R FOG
ORTONVILLE     CLOUDY    61  57  88 N7        29.91R
MADISON        MOSUNNY   64  61  88 NW10      29.90S
WILLMAR        FOG       63  61  94 W8        29.89R VSB 1/2
$$
MNZ033>034-036-042>043-049>051-058-059-301400-
   Central Minnesota

CITY           SKY/WX    TMP DP  RH WIND       PRES   REMARKS
ST CLOUD       PTSUNNY   68  65  90 NW5       29.84S
SAUK CENTRE    CLOUDY    64  64 100 N5        29.87R
PAYNESVILLE    HVY RAIN  64  64 100 CALM      29.87R
AITKIN         MIX PCPN  66  61  82 CALM      29.85R
PINE RIVER     CLOUDY    59  59 100 N9        29.91S
BRAINERD       CLOUDY    62  62 100 N9        29.87R
STAPLES        CLOUDY    61  59  94 N8        29.88R
LONG PRAIRIE   CLOUDY    63  61  94 NW6       29.88R
LITTLE FALLS   CLOUDY    64  63  94 CALM      29.86R
LITCHFIELD     DRIZZLE   66  66 100 N3        29.86R
BUFFALO        PTSUNNY   67  63  86 N6        29.85R
MAPLE LAKE     CLOUDY    68  67  98 N3        29.85S
$$
MNZ037-044-045-052-053-301400-
   East Central Minnesota

CITY           SKY/WX    TMP DP  RH WIND       PRES   REMARKS
PRINCETON      PTSUNNY   66  64  94 NW3       29.84R
MORA           CLOUDY    63  63 100 CALM      29.85S
CAMBRIDGE      SUNNY     66  57  72 NW3       29.82R
RUSH CITY      PTSUNNY   64  61  91 N6        29.83R
MOOSE LAKE     PTSUNNY   63  61  94 N3        29.83R
HINCKLEY       CLOUDY    63  63 100 N5        29.84R
CLOQUET        PTSUNNY   61  59  94 N3        29.85S
MCGREGOR       CLOUDY    63  63 100 CALM      29.87R
$$
MNZ071>073-080-081-089-090-097-098-301400-
   Southwest Minnesota

CITY           SKY/WX    TMP DP  RH WIND       PRES   REMARKS
MONTEVIDEO     CLOUDY    61  61 100 N8        29.90R
GRANITE FALLS  CLOUDY    61  61 100 W9        29.90S FOG
CANBY          CLOUDY    60  59  96 NW9       29.92R
MARSHALL       CLOUDY    61  57  88 NW9       29.89S
REDWOOD FALLS  CLOUDY    63  63 100 NW9       29.87R FOG
OLIVIA         FOG       63  61  94 NW9       29.87R VSB 1/2
PIPESTONE      CLOUDY    63  61  94 NW7       29.92R
WINDOM         FOG       64  63  94 W8        29.89R VSB 3/4
WORTHINGTON    CLOUDY    64  63  94 NW9       29.92R
JACKSON        CLOUDY    64  63  94 NW9       29.89R FOG
TRACY          FOG       62  61  97 NW6       29.90S VSB 1/4
SLAYTON        CLOUDY    61  61 100 CALM      29.92R FOG
$$
MNZ065>067-074>077-082>085-091>093-301400-
   South Central Minnesota

CITY           SKY/WX    TMP DP  RH WIND       PRES   REMARKS
MANKATO        CLOUDY    66  63  88 NW8       29.84R
NEW ULM        PTSUNNY   66  66 100 NW9       29.86R FOG
ST JAMES       CLOUDY    66  64  94 W12       29.87R FOG
FAIRMONT       CLOUDY    63  55  77 NW8       29.86S
GLENCOE        PTSUNNY   68  65  91 NW3       29.84R
FARIBAULT      MOSUNNY   70  64  83 NW6       29.83S
OWATONNA       CLOUDY    68  64  88 NW9       29.83S
WASECA         PTSUNNY   64  61  88 NW6       29.84S
ALBERT LEA     CLOUDY    66  66 100 NW9       29.84R FOG
$$
MNZ078>079-086>088-094>096-301400-
   Southeast Minnesota

CITY           SKY/WX    TMP DP  RH WIND       PRES   REMARKS
ROCHESTER      CLOUDY    67  65  93 NW8       29.82R
RED WING       CLOUDY    66  64  94 NW5       29.79R
STANTON        CLOUDY    68  65  90 N9        29.81R
DODGE CENTER   LGT RAIN  68  66  94 NW7       29.82S
WINONA         CLOUDY    70  68  94 NW3       29.78R
AUSTIN         CLOUDY    66  66 100 NW9       29.83R FOG
PRESTON        CLOUDY    65  65 100 NW3       29.81R
$$
ABBREVIATIONS USED IN REMARKS
   TC - TEMPERATURES IN CELSIUS
  WCI - WIND CHILL INDEX
   HX - HEAT INDEX
  VSB - VISIBILITY
$$



USA.gov is the U.S. government's official web portal to all federal, state and local government web resources and services.